SWA3402 KTUL-KDAL

Flight info

Callsign SWA3402
Flight time 0h 41m
Altitude 28000
Route PEJAY AXXEE HIBIL3
Aircraft B38M/M-SADE2E3GHIJ4J7P2RWZ/LB1D1

Departure

Time 2026-05-09 01:33
Airport Tulsa International Airport (KTUL)

Arrival

Time 2026-05-09 02:14
Airport Dallas Love Field (KDAL)
Time Latitude Longitude Altitude Speed Heading
2026-05-09 01:03 36.19194 -95.89025 670 ft 0 kts 129°
2026-05-09 01:22 36.19204 -95.89040 669 ft 4 kts 138°
2026-05-09 01:22 36.19225 -95.89058 670 ft 4 kts 147°
2026-05-09 01:22 36.19237 -95.89070 670 ft 4 kts 81°
2026-05-09 01:23 36.19249 -95.89056 670 ft 1 kts 38°
2026-05-09 01:27 36.19251 -95.89054 670 ft 1 kts 38°
2026-05-09 01:28 36.19271 -95.89035 670 ft 7 kts 38°
2026-05-09 01:28 36.19339 -95.88969 668 ft 18 kts 38°
2026-05-09 01:28 36.19436 -95.88860 670 ft 20 kts 69°
2026-05-09 01:28 36.19445 -95.88686 670 ft 21 kts 90°
2026-05-09 01:29 36.19517 -95.88592 672 ft 17 kts
2026-05-09 01:29 36.19616 -95.88590 672 ft 12 kts 359°
2026-05-09 01:29 36.19731 -95.88586 670 ft 20 kts 12°
2026-05-09 01:29 36.19843 -95.88548 670 ft 21 kts 19°
2026-05-09 01:30 36.20008 -95.88476 670 ft 28 kts 19°
2026-05-09 01:30 36.20196 -95.88399 670 ft 29 kts 18°
2026-05-09 01:30 36.20396 -95.88368 670 ft 30 kts
2026-05-09 01:30 36.20604 -95.88356 670 ft 30 kts
2026-05-09 01:31 36.20816 -95.88343 667 ft 31 kts
2026-05-09 01:31 36.21033 -95.88328 670 ft 31 kts
2026-05-09 01:31 36.21254 -95.88312 670 ft 32 kts
2026-05-09 01:31 36.21393 -95.88222 670 ft 22 kts 94°
2026-05-09 01:32 36.21356 -95.88138 670 ft 0 kts 186°
2026-05-09 01:32 36.21353 -95.88138 670 ft 2 kts 182°
2026-05-09 01:32 36.21221 -95.88146 672 ft 50 kts 182°
2026-05-09 01:32 36.20651 -95.88178 669 ft 112 kts 183°
2026-05-09 01:33 36.19691 -95.88240 672 ft 162 kts 182°
2026-05-09 01:33 36.18523 -95.88325 1203 ft 162 kts 184°
2026-05-09 01:33 36.17418 -95.88439 1866 ft 168 kts 180°
2026-05-09 01:33 36.16198 -95.88148 2217 ft 187 kts 164°
2026-05-09 01:34 36.14937 -95.87646 2786 ft 197 kts 163°
2026-05-09 01:34 36.13563 -95.87124 3052 ft 224 kts 166°
2026-05-09 01:34 36.12048 -95.86393 3501 ft 243 kts 161°
2026-05-09 01:34 36.10426 -95.85571 3961 ft 261 kts 161°
2026-05-09 01:35 36.08696 -95.84726 4532 ft 273 kts 161°
2026-05-09 01:35 36.06899 -95.83864 5189 ft 280 kts 161°
2026-05-09 01:35 36.05072 -95.83001 6010 ft 281 kts 161°
2026-05-09 01:35 36.03247 -95.82148 6849 ft 281 kts 161°
2026-05-09 01:36 36.01403 -95.81291 7621 ft 284 kts 161°
2026-05-09 01:36 35.99548 -95.80431 8365 ft 286 kts 161°
2026-05-09 01:36 35.97697 -95.79575 9089 ft 289 kts 161°
2026-05-09 01:36 35.95809 -95.78703 9815 ft 292 kts 161°
2026-05-09 01:37 35.93879 -95.77812 10311 ft 304 kts 162°
2026-05-09 01:37 35.91831 -95.76869 10553 ft 324 kts 162°
2026-05-09 01:37 35.89672 -95.75872 10857 ft 340 kts 162°
2026-05-09 01:37 35.87419 -95.74833 11271 ft 351 kts 162°
2026-05-09 01:38 35.85107 -95.73767 11814 ft 358 kts 162°
2026-05-09 01:38 35.82766 -95.72695 12485 ft 360 kts 163°
2026-05-09 01:38 35.80435 -95.71616 13138 ft 364 kts 163°
2026-05-09 01:38 35.78055 -95.70522 13856 ft 365 kts 164°
2026-05-09 01:39 35.75657 -95.69422 14487 ft 370 kts 164°
2026-05-09 01:39 35.73230 -95.68308 15150 ft 374 kts 165°
2026-05-09 01:39 35.70790 -95.67189 15819 ft 376 kts 165°
2026-05-09 01:39 35.68322 -95.66057 16456 ft 380 kts 166°
2026-05-09 01:40 35.65805 -95.65156 17028 ft 373 kts 180°
2026-05-09 01:40 35.63248 -95.65213 17604 ft 367 kts 193°
2026-05-09 01:40 35.60701 -95.65578 18162 ft 370 kts 193°
2026-05-09 01:40 35.58177 -95.65979 18717 ft 372 kts 194°
2026-05-09 01:41 35.55595 -95.66412 19218 ft 377 kts 194°
2026-05-09 01:41 35.52984 -95.66865 19731 ft 380 kts 195°
2026-05-09 01:41 35.50351 -95.67331 20193 ft 385 kts 195°
2026-05-09 01:41 35.47692 -95.67804 20675 ft 388 kts 195°
2026-05-09 01:42 35.45005 -95.68285 21119 ft 393 kts 195°
2026-05-09 01:42 35.42283 -95.68771 21560 ft 396 kts 195°
2026-05-09 01:42 35.39546 -95.69261 22011 ft 400 kts 195°
2026-05-09 01:42 35.37120 -95.69694 22380 ft 403 kts 195°
2026-05-09 01:43 35.34328 -95.70192 22781 ft 407 kts 195°
2026-05-09 01:43 35.31549 -95.70687 23177 ft 411 kts 195°
2026-05-09 01:43 35.28714 -95.71193 23584 ft 414 kts 195°
2026-05-09 01:43 35.25846 -95.71703 23959 ft 418 kts 196°
2026-05-09 01:44 35.22959 -95.72217 24364 ft 421 kts 196°
2026-05-09 01:44 35.20052 -95.72735 24760 ft 424 kts 195°
2026-05-09 01:44 35.17128 -95.73254 25141 ft 427 kts 195°
2026-05-09 01:44 35.14179 -95.73777 25494 ft 430 kts 195°
2026-05-09 01:45 35.11210 -95.74305 25878 ft 432 kts 195°
2026-05-09 01:45 35.08231 -95.74833 26246 ft 434 kts 195°
2026-05-09 01:45 35.05276 -95.75357 26599 ft 437 kts 195°
2026-05-09 01:45 35.02259 -95.75891 26942 ft 439 kts 195°
2026-05-09 01:46 34.99230 -95.76427 27282 ft 441 kts 195°
2026-05-09 01:46 34.96188 -95.76965 27647 ft 443 kts 195°
2026-05-09 01:46 34.93125 -95.77506 27868 ft 447 kts 195°
2026-05-09 01:46 34.90027 -95.78053 27884 ft 453 kts 195°
2026-05-09 01:47 34.86885 -95.78607 27873 ft 460 kts 195°
2026-05-09 01:47 34.83703 -95.79168 27874 ft 465 kts 195°
2026-05-09 01:47 34.80526 -95.79728 27873 ft 470 kts 195°
2026-05-09 01:47 34.77278 -95.80299 27874 ft 474 kts 195°
2026-05-09 01:48 34.74002 -95.80875 27874 ft 477 kts 195°
2026-05-09 01:48 34.70715 -95.81452 27877 ft 479 kts 195°
2026-05-09 01:48 34.67413 -95.82032 27881 ft 480 kts 195°
2026-05-09 01:48 34.64111 -95.82611 27880 ft 480 kts 195°
2026-05-09 01:49 34.60794 -95.83193 27880 ft 481 kts 195°
2026-05-09 01:49 34.57481 -95.83773 27878 ft 482 kts 195°
2026-05-09 01:49 34.54159 -95.84354 27879 ft 482 kts 195°
2026-05-09 01:49 34.50834 -95.84935 27885 ft 483 kts 195°
2026-05-09 01:50 34.47556 -95.85508 27888 ft 482 kts 195°
2026-05-09 01:50 34.44236 -95.86088 27889 ft 482 kts 195°
2026-05-09 01:50 34.41888 -95.86497 27884 ft 476 kts 195°
2026-05-09 01:50 34.38685 -95.87054 27905 ft 457 kts 195°
2026-05-09 01:51 34.35547 -95.87603 27890 ft 454 kts 195°
2026-05-09 01:51 34.32433 -95.88188 27881 ft 450 kts 200°
2026-05-09 01:51 34.29501 -95.89355 27896 ft 442 kts 207°
2026-05-09 01:51 34.26597 -95.90594 27884 ft 443 kts 206°
2026-05-09 01:52 34.23683 -95.91836 27888 ft 443 kts 206°
2026-05-09 01:52 34.20814 -95.93065 27889 ft 443 kts 207°
2026-05-09 01:52 34.17918 -95.94306 27847 ft 437 kts 206°
2026-05-09 01:52 34.15076 -95.95526 27195 ft 433 kts 206°
2026-05-09 01:53 34.12243 -95.96740 26568 ft 431 kts 206°
2026-05-09 01:53 34.09424 -95.97948 25931 ft 429 kts 206°
2026-05-09 01:53 34.06616 -95.99150 25293 ft 428 kts 206°
2026-05-09 01:53 34.03812 -96.00350 24668 ft 426 kts 206°
2026-05-09 01:54 34.01019 -96.01543 24040 ft 425 kts 206°
2026-05-09 01:54 33.98236 -96.02732 23426 ft 424 kts 206°
2026-05-09 01:54 33.95481 -96.03908 23195 ft 412 kts 206°
2026-05-09 01:54 33.92874 -96.05018 23227 ft 396 kts 206°
2026-05-09 01:55 33.90312 -96.06112 23035 ft 386 kts 207°
2026-05-09 01:55 33.87810 -96.07245 22422 ft 386 kts 208°
2026-05-09 01:55 33.85291 -96.08403 21875 ft 387 kts 207°
2026-05-09 01:55 33.82780 -96.09550 21359 ft 386 kts 207°
2026-05-09 01:56 33.80272 -96.10693 20792 ft 386 kts 207°
2026-05-09 01:56 33.77761 -96.11837 20227 ft 386 kts 207°
2026-05-09 01:56 33.75245 -96.12982 19648 ft 387 kts 207°
2026-05-09 01:56 33.72778 -96.14104 19097 ft 380 kts 207°
2026-05-09 01:57 33.70338 -96.15212 18545 ft 369 kts 207°
2026-05-09 01:57 33.67973 -96.16286 18088 ft 357 kts 207°
2026-05-09 01:57 33.65679 -96.17325 17621 ft 352 kts 207°
2026-05-09 01:57 33.63392 -96.18363 17105 ft 352 kts 207°
2026-05-09 01:58 33.61093 -96.19406 16575 ft 354 kts 207°
2026-05-09 01:58 33.58782 -96.20456 16050 ft 356 kts 207°
2026-05-09 01:58 33.56406 -96.21368 15448 ft 362 kts 203°
2026-05-09 01:58 33.54012 -96.22258 14955 ft 357 kts 204°
2026-05-09 01:59 33.51681 -96.23135 14456 ft 342 kts 204°
2026-05-09 01:59 33.49472 -96.23973 14046 ft 336 kts 204°
2026-05-09 01:59 33.47238 -96.24818 13441 ft 340 kts 204°
2026-05-09 01:59 33.45011 -96.25656 12951 ft 330 kts 205°
2026-05-09 02:00 33.42870 -96.26548 12396 ft 323 kts 205°
2026-05-09 02:00 33.40772 -96.27420 11994 ft 312 kts 205°
2026-05-09 02:00 33.38754 -96.28251 11590 ft 302 kts 205°
2026-05-09 02:00 33.36795 -96.29063 11149 ft 293 kts 205°
2026-05-09 02:01 33.34890 -96.29850 10708 ft 286 kts 204°
2026-05-09 02:01 33.33031 -96.30617 10283 ft 280 kts 204°
2026-05-09 02:01 33.31234 -96.31357 9877 ft 276 kts 203°
2026-05-09 02:01 33.29409 -96.32109 9472 ft 278 kts 202°
2026-05-09 02:02 33.27577 -96.32872 9067 ft 279 kts 205°
2026-05-09 02:02 33.26004 -96.34134 8790 ft 270 kts 229°
2026-05-09 02:02 33.24832 -96.35841 8605 ft 262 kts 232°
2026-05-09 02:02 33.23690 -96.37534 8410 ft 262 kts 232°
2026-05-09 02:03 33.22556 -96.39237 8199 ft 262 kts 232°
2026-05-09 02:03 33.21431 -96.40942 7999 ft 261 kts 232°
2026-05-09 02:03 33.20313 -96.42645 7793 ft 260 kts 232°
2026-05-09 02:03 33.19217 -96.44323 7589 ft 259 kts 232°
2026-05-09 02:04 33.18111 -96.46018 7387 ft 258 kts 232°
2026-05-09 02:04 33.17069 -96.47762 7153 ft 258 kts 235°
2026-05-09 02:04 33.16049 -96.49514 6954 ft 257 kts 235°
2026-05-09 02:04 33.15029 -96.51256 6759 ft 256 kts 235°
2026-05-09 02:05 33.14009 -96.52997 6561 ft 255 kts 235°
2026-05-09 02:05 33.12990 -96.54730 6363 ft 255 kts 234°
2026-05-09 02:05 33.11974 -96.56455 6161 ft 254 kts 234°
2026-05-09 02:05 33.10961 -96.58176 5959 ft 253 kts 234°
2026-05-09 02:06 33.09963 -96.59868 5763 ft 252 kts 234°
2026-05-09 02:06 33.08958 -96.61574 5558 ft 252 kts 234°
2026-05-09 02:06 33.07951 -96.63282 5358 ft 251 kts 234°
2026-05-09 02:07 33.06019 -96.66554 4985 ft 234 kts 234°
2026-05-09 02:07 33.05093 -96.68123 4798 ft 229 kts 234°
2026-05-09 02:07 33.04190 -96.69654 4613 ft 223 kts 234°
2026-05-09 02:07 33.03303 -96.71151 4440 ft 221 kts 234°
2026-05-09 02:08 33.02416 -96.72653 4262 ft 222 kts 233°
2026-05-09 02:08 33.01537 -96.74138 4099 ft 222 kts 233°
2026-05-09 02:08 33.00648 -96.75640 3926 ft 222 kts 233°
2026-05-09 02:08 32.99760 -96.77140 3741 ft 221 kts 233°
2026-05-09 02:09 32.98872 -96.78640 3575 ft 222 kts 233°
2026-05-09 02:09 32.97984 -96.80138 3396 ft 221 kts 233°
2026-05-09 02:09 32.97099 -96.81633 3215 ft 221 kts 233°
2026-05-09 02:09 32.96260 -96.83125 3091 ft 214 kts 243°
2026-05-09 02:10 32.95977 -96.84850 2834 ft 214 kts 266°
2026-05-09 02:10 32.95928 -96.86569 2689 ft 209 kts 265°
2026-05-09 02:10 32.95872 -96.88301 2589 ft 209 kts 265°
2026-05-09 02:10 32.95824 -96.89969 2545 ft 193 kts 265°
2026-05-09 02:11 32.95452 -96.91435 2373 ft 183 kts 231°
2026-05-09 02:11 32.94492 -96.92378 2244 ft 180 kts 207°
2026-05-09 02:11 32.93383 -96.93076 2164 ft 181 kts 205°
2026-05-09 02:11 32.92195 -96.93411 2002 ft 175 kts 172°
2026-05-09 02:12 32.91112 -96.92886 1893 ft 167 kts 147°
2026-05-09 02:12 32.90197 -96.92105 1800 ft 156 kts 141°
2026-05-09 02:12 32.89401 -96.91232 1598 ft 157 kts 136°
2026-05-09 02:12 32.88624 -96.90336 1422 ft 158 kts 136°
2026-05-09 02:13 32.87836 -96.89424 1235 ft 158 kts 136°
2026-05-09 02:13 32.87034 -96.88522 1012 ft 160 kts 136°
2026-05-09 02:13 32.86241 -96.87613 796 ft 158 kts 136°
2026-05-09 02:13 32.85450 -96.86708 578 ft 155 kts 136°
2026-05-09 02:14 32.84949 -96.86132 490 ft 145 kts 136°
2026-05-09 02:14 32.84286 -96.85370 479 ft 112 kts 136°
2026-05-09 02:14 32.83887 -96.84912 487 ft 48 kts 136°
2026-05-09 02:14 32.83737 -96.84706 479 ft 21 kts 90°
2026-05-09 02:15 32.83816 -96.84638 479 ft 12 kts 323°
2026-05-09 02:15 32.83877 -96.84710 481 ft 13 kts 316°
2026-05-09 02:15 32.83946 -96.84789 480 ft 15 kts 315°
2026-05-09 02:15 32.84024 -96.84879 486 ft 16 kts 316°
2026-05-09 02:16 32.84110 -96.84977 486 ft 18 kts 316°
2026-05-09 02:16 32.84203 -96.85085 485 ft 20 kts 316°
2026-05-09 02:16 32.84306 -96.85204 485 ft 22 kts 315°
2026-05-09 02:16 32.84419 -96.85332 481 ft 23 kts 323°
2026-05-09 02:17 32.84578 -96.85344 486 ft 24 kts
2026-05-09 02:17 32.84722 -96.85314 486 ft 18 kts 32°
2026-05-09 02:17 32.84748 -96.85184 486 ft 18 kts 90°
2026-05-09 02:18 32.84743 -96.84879 486 ft 18 kts 91°
2026-05-09 02:18 32.84699 -96.84739 486 ft 19 kts 132°
2026-05-09 02:18 32.84628 -96.84666 486 ft 3 kts 176°
2026-05-09 02:18 32.84604 -96.84684 486 ft 5 kts 225°
2026-05-09 02:19 32.84603 -96.84717 486 ft 4 kts 292°
2026-05-09 02:19 32.84616 -96.84749 486 ft 2 kts 297°
2026-05-09 02:19 32.84618 -96.84754 486 ft 0 kts 298°